Volver al catálogo

FENGYUN 1C DEB

ActivoPO
NORAD 31364·DEBRIS·🇨🇳 China

Lanzado May 10, 1999 desde Taiyuan Satellite Launch Center

Loading…

Próximos Pases (próximas 24 horas)

TLE

ActualizadoSource: Space-Track

Época: Sep 14, 2026, 07:50 UTC

1 31364U 99025BRU 26257.32645031  .00003059  00000-0  14774-2 0  9990
2 31364  99.2702  33.0072 0090666  93.2387 267.9164 14.17232747987773

Sigue FENGYUN 1C DEB en tiempo real con AllMySat

Download on the App Store